GW0458 Weather Reports


time (UTC)temp
C
wind
direction
speed
KPH
gust
KPH
rain 1hr
cm
rain 24hr
cm
rain mn
cm
humidity
%
barometer
mb
20260902094024 15 199 1.6 1.6 0.00 0.00 0.00 99 1016.8
20260902091023 15 183 1.6 1.6 0.00 0.00 0.00 99 1017.0
20260902084023 15 194 0.0 0.0 0.00 0.00 0.00 98 1017.1
20260902081018 15 187 1.6 1.6 0.00 0.00 0.00 97 1017.3
20260902074012 15 175 3.2 3.2 0.00 0.00 0.00 97 1017.6
20260902071010 15 216 1.6 3.2 0.00 0.00 0.00 98 1018.0
20260902064009 15 194 3.2 3.2 0.00 0.00 0.00 99 1017.8
20260902061006 15 190 0.0 1.6 0.00 0.00 0.00 99 1017.8
20260902054002 15 193 1.6 1.6 0.00 0.00 0.00 99 1018.1
20260902050958 15 171 3.2 3.2 0.00 0.00 0.00 99 1018.1
20260902043953 15 197 0.0 0.0 0.00 0.00 0.00 99 1018.1
20260902040950 15 200 0.0 0.0 0.00 0.00 0.00 99 1018.4
20260902033950 15 192 1.6 1.6 0.00 0.00 0.00 98 1018.3
20260902030948 15 201 0.0 0.0 0.00 0.00 0.00 95 1018.1
20260902023944 17 206 0.0 0.0 0.00 0.00 0.00 85 1018.1
20260902020943 17 207 0.0 0.0 0.00 0.00 0.00 85 1017.8
20260902013939 17 206 0.0 0.0 0.00 0.00 0.00 84 1017.5
20260902010939 18 197 0.0 1.6 0.00 0.00 0.00 82 1017.9
20260902003936 18 200 0.0 0.0 0.00 0.00 0.00 82 1017.9
20260902000934 18 211 0.0 0.0 0.00 0.00 0.00 82 1017.6
20260901233932 18 209 1.6 3.2 0.00 0.00 0.00 80 1017.8
20260901230930 18 207 0.0 0.0 0.00 0.00 0.00 83 1017.8
20260901223929 18 220 0.0 1.6 0.00 0.00 0.00 82 1017.6
20260901220925 18 208 0.0 1.6 0.00 0.00 0.00 81 1017.9
20260901213925 18 212 1.6 1.6 0.00 0.00 0.00 81 1017.8
20260901210920 18 201 0.0 1.6 0.00 0.00 0.00 82 1017.9
20260901203915 17 186 3.2 4.8 0.00 0.00 0.00 83 1018.1
20260901200913 18 225 4.8 8.0 0.00 0.00 0.00 82 1018.1
20260901193910 17 200 4.8 4.8 0.00 0.00 0.00 82 1018.2
20260901190910 17 157 4.8 4.8 0.00 0.00 0.00 83 1018.5
20260901183910 17 192 1.6 1.6 0.00 0.00 0.00 83 1018.6
20260901180906 17 200 0.0 1.6 0.00 0.00 0.00 85 1018.5
20260901173904 16 199 0.0 0.0 0.00 0.00 0.00 88 1018.3
20260901170902 16 200 0.0 0.0 0.00 0.00 0.00 89 1018.3
20260901163900 15 190 1.6 1.6 0.00 0.00 0.00 93 1018.1
20260901160855 14 190 1.6 3.2 0.00 0.00 0.00 94 1018.5
20260901153854 14 186 3.2 3.2 0.00 0.00 0.00 96 1018.6
20260901150854 13 186 1.6 1.6 0.00 0.00 0.00 97 1018.6
20260901143853 12 202 0.0 0.0 0.00 0.00 0.00 99 1018.3
20260901140851 12 209 0.0 0.0 0.00 0.00 0.00 99 1018.0
20260901133848 11 198 0.0 0.0 0.00 0.00 0.00 99 1018.0
20260901130847 12 189 1.6 1.6 0.00 0.00 0.00 99 1017.9
20260901123846 12 192 1.6 1.6 0.00 0.00 0.00 99 1017.8
20260901120842 12 199 0.0 0.0 0.00 0.00 0.00 99 1017.4
20260901113841 12 203 0.0 0.0 0.00 0.00 0.00 99 1016.9
20260901110839 12 201 0.0 0.0 0.00 0.00 0.00 99 1017.2
20260901103836 12 198 0.0 0.0 0.00 0.00 0.00 99 1017.0
20260901100832 12 196 0.0 0.0 0.00 0.00 0.00 99 1016.7